Погода в Сопоте

Болгария     42°39′13″N   24°45′20″E
темп.,
°C
ветер,
м/с
пор.,
м/с
влажн.,
%
обл.,
%
осадки,
мм/ч
давл.,
гПа
погр.,
м
17 сентября, пт
пт1700:00+18ю114287 0.0 101816
03:00+17ю2242100 0.0 101834
06:00+16ю224843 0.0 101734
09:00+19ююз224576 0.0 1016119
12:00+22юз2243100 0.0 1014756
15:00+26ю153598 0.0 10121809
18:00+21юз3555100 0.3 1013569
21:00+17юз127591 0.9 101326
18 сентября, сб
сб1800:00+16юз226837 0.4 101229
03:00+15сз117293 0.4 101211
06:00+14сз127512 0.0 101213
09:00+17с226790 0.0 1012205
12:00+20с2360100 1.1 1012770
15:00+19ссз3367100 4.0 1012731
18:00+15с338991 2.9 1012210
21:00+13ссв12941 3.0 101427
19 сентября, вс
вс1900:00+12с11915 0.0 101513
03:00+12ссз018841 0.0 101411
06:00+11ссв11876 0.1 101418
09:00+14ю117123 0.2 1014152
12:00+20зсз265693 0.8 10131380
15:00+19с236291 2.4 1013535
18:00+20с125855 0.1 1011447
21:00+14юв11827 0.9 101314
20 сентября, пн
пн2000:00+14ссз118540 2.1 101314
03:00+13сз118899 3.1 101411
06:00+11с02945 0.4 101417
09:00+15с22805 0.4 1015143
12:00+20ссз135810 0.1 10151102
15:00+21ссв134793 0.4 10141037
18:00+20ссв235284 0.1 1013567
21:00+15вюв128714 1.8 101640
21 сентября, вт
вт2100:00+14с018226 0.1 101611
03:00+13с228999 0.1 101726
06:00+11св1193100 0.2 101716
09:00+13с2284100 0.3 1018174
12:00+17с346434 0.1 1018866
15:00+18с445561 0.3 10181279
18:00+16ссз345830 0.0 1019521
21:00+12с23704 0.0 102140